User: anonymous   Login
Location: Caltech
(34.1382°N, 118.1253°W)
Time: 19:59:45
(UTC-08:00)
Language:

deb Explorer IX - Orbit

View from above orbital plane
View from above orbital plane
View from above satellite
View from above satellite

Ground track
Ground track

The orbit data is extracted from the following two-line orbital elements,

1 00085U 61004C   14349.78817548  .00029898  00000-0  76209-2 0   895
2 00085 038.7673 138.6563 0433637 140.7805 222.5205 14.06001783645780
Epoch (UTC): 15 December 2014 18:54:58
Eccentricity: 0.0433637
inclination: 38.7673°
perigee height: 558 km
apogee height: 1187 km
right ascension of ascending node: 138.6563°
argument of perigee: 140.7805°
revolutions per day: 14.06001783
mean anomaly at epoch: 222.5205°
orbit number at epoch: 64578

The dashed part of the orbit path shows where the satellite is in the earth's shadow,  

DLR